Weather History for K2I0 - July, 2013

Change the Weather History Date:

Monday, July 29, 2013

  Actual Average (KOWB) Record (KOWB)
Temperature  
Mean Temperature 69 °F -  
Max Temperature 81 °F 88 °F 99 °F (1952)
Min Temperature 57 °F 66 °F 32 °F (1999)
Cooling Degree Days 4    
Growing Degree Days 19 (Base 50)    
Moisture  
Dew Point 63 °F    
Average Humidity 76    
Maximum Humidity 100    
Minimum Humidity 48    
Precipitation  
Precipitation 0.00 in - - ()
Sea Level Pressure  
Sea Level Pressure 30.15 in    
Wind  
Wind Speed 1 mph (SW)    
Max Wind Speed 7 mph    
Max Gust Speed -    
Visibility 10 miles    
Events      
Averages and records for this station are not official NWS values.
T = Trace of Precipitation, MM = Missing Value Source: NWS Daily Summary

Daily Weather History Graph

Daily Weather History Graph

Search for Another Location

Airport or City:

Trip Planner

Search our weather history database for the weather conditions in past years. The results will help you decide how hot, cold, wet, or windy it might be!

Date:

Astronomy

Jul. 29, 2013 Rise Set
Actual Time 5:51 AM CDT 7:59 PM CDT
Civil Twilight 5:22 AM CDT 8:28 PM CDT
Nautical Twilight 4:47 AM CDT 9:04 PM CDT
Astronomical Twilight 4:08 AM CDT 9:42 PM CDT
Moon No Moon Rise 1:22 PM CDT (7/29)
Length of Visible Light 15h 06m
Length of Day
14h 08m
Waning Gibbous, 50% of the Moon is Illuminated
Jul 29
Waning Gibbous
Jul 29
Last Quarter
Aug 6
New
Aug 14
First Quarter
Aug 20
Full

Hourly Weather History & Observations

Time (CDT) Temp. Heat Index Dew Point Humidity Pressure Visibility Wind Dir Wind Speed Gust Speed Precip Events Conditions
12:15 AM 62.8 °F - 62.2 °F 98% 30.09 in 10.0 mi Calm Calm - N/A   Clear
12:35 AM 61.7 °F - 61.2 °F 98% 30.09 in 10.0 mi Calm Calm - N/A   Clear
12:55 AM 61.0 °F - 60.4 °F 98% 30.09 in 10.0 mi Calm Calm - N/A   Clear
1:15 AM 61.2 °F - 60.8 °F 99% 30.09 in 10.0 mi Calm Calm - N/A   Clear
1:35 AM 61.7 °F - 61.5 °F 99% 30.10 in 10.0 mi Calm Calm - N/A   Clear
1:55 AM 61.2 °F - 60.6 °F 98% 30.09 in 10.0 mi Calm Calm - N/A   Clear
2:15 AM 60.6 °F - 60.3 °F 99% 30.09 in 10.0 mi Calm Calm - N/A   Clear
2:55 AM 59.9 °F - 59.9 °F 100% 30.10 in 10.0 mi Calm Calm - N/A   Clear
3:15 AM 60.1 °F - 60.1 °F 100% 30.10 in 10.0 mi Calm Calm - N/A   Clear
3:35 AM 59.9 °F - 59.9 °F 100% 30.10 in 10.0 mi Calm Calm - N/A   Clear
3:55 AM 59.5 °F - 59.5 °F 100% 30.10 in 10.0 mi Calm Calm - N/A   Clear
4:15 AM 59.2 °F - 59.2 °F 100% 30.11 in 7.0 mi Calm Calm - N/A   Clear
4:35 AM 59.0 °F - 59.0 °F 100% 30.12 in 10.0 mi SW 4.6 mph - N/A   Clear
4:55 AM 58.3 °F - 58.3 °F 100% 30.12 in 10.0 mi Calm Calm - N/A   Clear
5:15 AM 58.1 °F - 58.1 °F 100% 30.13 in 10.0 mi Calm Calm - N/A   Clear
5:35 AM 58.1 °F - 58.1 °F 100% 30.13 in 10.0 mi Calm Calm - N/A   Clear
5:55 AM 57.4 °F - 57.4 °F 100% 30.13 in 10.0 mi Calm Calm - N/A   Clear
6:15 AM 58.5 °F - 58.5 °F 100% 30.14 in 10.0 mi WSW 3.5 mph - N/A   Clear
6:35 AM 60.1 °F - 60.1 °F 100% 30.15 in 10.0 mi Calm Calm - N/A   Clear
6:55 AM 61.7 °F - 61.2 °F 98% 30.15 in 10.0 mi WSW 3.5 mph - N/A   Clear
7:15 AM 64.0 °F - 62.4 °F 94% 30.16 in 10.0 mi SW 3.5 mph - N/A   Clear
7:35 AM 66.0 °F - 63.3 °F 91% 30.16 in 10.0 mi Calm Calm - N/A   Clear
7:55 AM 67.6 °F - 63.7 °F 87% 30.17 in 10.0 mi Calm Calm - N/A   Clear
8:15 AM 68.9 °F - 64.4 °F 86% 30.18 in 10.0 mi WSW 4.6 mph - N/A   Clear
8:35 AM 70.7 °F - 63.7 °F 78% 30.18 in 10.0 mi WSW 5.8 mph - N/A   Clear
8:55 AM 72.0 °F - 62.8 °F 73% 30.18 in 10.0 mi West 6.9 mph - N/A   Clear
9:15 AM 73.4 °F - 62.8 °F 69% 30.18 in 10.0 mi WSW 4.6 mph - N/A   Clear
9:35 AM 74.5 °F - 62.6 °F 66% 30.18 in 10.0 mi Calm Calm - N/A   Clear
9:55 AM 75.0 °F - 62.1 °F 64% 30.17 in 10.0 mi Calm Calm - N/A   Clear
10:15 AM 76.5 °F - 62.1 °F 61% 30.18 in 10.0 mi Calm Calm - N/A   Clear
10:35 AM 77.4 °F - 61.7 °F 58% 30.18 in 10.0 mi Calm Calm - N/A   Clear
10:55 AM 78.1 °F - 61.0 °F 56% 30.18 in 10.0 mi SSW 4.6 mph - N/A   Clear
11:15 AM 78.8 °F - 60.1 °F 53% 30.18 in 10.0 mi WSW 4.6 mph - N/A   Clear
11:35 AM 79.0 °F - 59.5 °F 51% 30.18 in 10.0 mi WSW 4.6 mph - N/A   Clear
11:55 AM 79.0 °F - 59.0 °F 50% 30.18 in 10.0 mi SSW 3.5 mph - N/A   Clear
12:15 PM 79.5 °F - 60.6 °F 52% 30.18 in 10.0 mi WSW 3.5 mph - N/A   Clear
12:35 PM 79.7 °F - 60.6 °F 52% 30.18 in 10.0 mi WSW 3.5 mph - N/A   Scattered Clouds
12:55 PM 79.7 °F - 60.6 °F 52% 30.18 in 10.0 mi WSW 3.5 mph - N/A   Mostly Cloudy
1:15 PM 80.6 °F 81.1 °F 59.4 °F 48% 30.18 in 10.0 mi Calm Calm - N/A   Scattered Clouds
1:35 PM 80.6 °F 81.5 °F 61.2 °F 51% 30.18 in 10.0 mi SW 5.8 mph - N/A   Clear
1:55 PM 80.8 °F 81.4 °F 60.3 °F 49% 30.18 in 10.0 mi Calm Calm - N/A   Scattered Clouds
2:15 PM 80.4 °F 81.5 °F 61.7 °F 53% 30.17 in 10.0 mi SW 4.6 mph - N/A   Clear
2:35 PM 79.9 °F - 61.2 °F 53% 30.17 in 10.0 mi SW 3.5 mph - N/A   Clear
2:55 PM 80.8 °F 81.9 °F 62.2 °F 53% 30.16 in 10.0 mi Calm Calm - N/A   Clear
3:15 PM 80.6 °F 81.7 °F 61.9 °F 53% 30.16 in 10.0 mi WSW 6.9 mph - N/A   Scattered Clouds
3:35 PM 81.5 °F 82.7 °F 63.0 °F 53% 30.16 in 10.0 mi South 5.8 mph - N/A   Scattered Clouds
3:55 PM 81.7 °F 82.9 °F 63.0 °F 53% 30.16 in 10.0 mi SSE 5.8 mph - N/A   Scattered Clouds
4:15 PM 80.4 °F 81.6 °F 62.4 °F 54% 30.16 in 10.0 mi SSW 3.5 mph - N/A   Mostly Cloudy
4:35 PM 79.7 °F - 63.5 °F 58% 30.16 in 10.0 mi SW 4.6 mph - N/A   Scattered Clouds
4:55 PM 81.3 °F 82.3 °F 62.2 °F 52% 30.16 in 10.0 mi South 3.5 mph - N/A   Mostly Cloudy
5:15 PM 81.1 °F 82.4 °F 63.0 °F 54% 30.16 in 10.0 mi Calm Calm - N/A   Mostly Cloudy
5:35 PM 81.1 °F 82.0 °F 61.7 °F 51% 30.16 in 10.0 mi WSW 3.5 mph - N/A   Scattered Clouds
5:55 PM 81.1 °F 82.1 °F 62.2 °F 52% 30.16 in 10.0 mi WNW 3.5 mph - N/A   Clear
6:15 PM 78.8 °F - 63.1 °F 59% 30.16 in 10.0 mi West 4.6 mph - N/A   Clear
6:35 PM 78.1 °F - 64.8 °F 63% 30.16 in 10.0 mi Calm Calm - N/A   Clear
6:55 PM 78.3 °F - 65.5 °F 65% 30.16 in 10.0 mi Calm Calm - N/A   Clear
7:15 PM 77.5 °F - 65.7 °F 67% 30.16 in 10.0 mi Calm Calm - N/A   Clear
7:35 PM 76.1 °F - 67.5 °F 74% 30.16 in 10.0 mi Calm Calm - N/A   Clear
7:55 PM 75.4 °F - 68.0 °F 78% 30.16 in 10.0 mi Calm Calm - N/A   Clear
8:15 PM 75.0 °F - 65.5 °F 72% 30.16 in 10.0 mi Calm Calm - N/A   Clear
8:35 PM 74.3 °F - 66.2 °F 76% 30.17 in 10.0 mi Calm Calm - N/A   Clear
8:55 PM 72.3 °F - 68.2 °F 87% 30.18 in 10.0 mi Calm Calm - N/A   Clear
9:15 PM 73.6 °F - 65.8 °F 77% 30.18 in 10.0 mi Calm Calm - N/A   Clear
9:35 PM 70.7 °F - 67.3 °F 89% 30.18 in 10.0 mi Calm Calm - N/A   Clear
9:55 PM 69.8 °F - 68.2 °F 95% 30.19 in 10.0 mi Calm Calm - N/A   Clear
10:15 PM 70.5 °F - 68.0 °F 92% 30.19 in 10.0 mi Calm Calm - N/A   Clear
10:35 PM 70.2 °F - 68.0 °F 93% 30.18 in 10.0 mi Calm Calm - N/A   Mostly Cloudy
10:55 PM 69.6 °F - 67.8 °F 94% 30.18 in 10.0 mi SSE 3.5 mph - N/A   Overcast
11:15 PM 70.3 °F - 68.2 °F 93% 30.18 in 10.0 mi South 3.5 mph - N/A   Scattered Clouds
11:35 PM 70.0 °F - 66.0 °F 87% 30.18 in 10.0 mi Calm Calm - N/A   Clear
11:55 PM 67.8 °F - 66.4 °F 95% 30.18 in 10.0 mi Calm Calm - N/A   Clear